DW1824 Weather Reports


time (UTC)temp
C
wind
direction
speed
KPH
gust
KPH
rain 1hr
cm
rain 24hr
cm
rain mn
cm
humidity
%
barometer
mb
20260505160338 25 179 4.8 12.9 0.00 0.00 0.00 86 1009.7
20260505153352 25 139 4.8 19.3 0.00 0.00 0.00 89 1009.5
20260505152355 25 126 3.2 8.0 0.00 0.00 0.00 88 1009.4
20260505151340 25 169 6.4 22.5 0.00 0.00 0.00 87 1009.5
20260505150343 25 158 3.2 14.5 0.00 0.00 0.00 88 1009.5
20260505140335 23 183 1.6 4.8 0.00 0.00 0.00 93 1009.2
20260505124350 21 127 3.2 8.0 0.00 0.00 0.00 94 1008.9
20260505123329 21 120 1.6 4.8 0.00 0.00 0.00 94 1009.2
20260505122338 21 125 0.0 4.8 0.00 0.00 0.00 94 1009.0
20260505121325 21 141 0.0 3.2 0.00 0.00 0.00 94 1009.0
20260505120337 21 127 0.0 4.8 0.00 0.00 0.00 94 1008.8
20260505115323 21 120 3.2 4.8 0.00 0.00 0.00 94 1008.7
20260505114330 20 133 1.6 6.4 0.00 0.00 0.00 94 1008.6
20260505113334 20 131 3.2 4.8 0.00 0.00 0.00 94 1008.5
20260505112343 20 130 3.2 4.8 0.00 0.00 0.00 94 1008.7
20260505111331 20 135 0.0 1.6 0.00 0.00 0.00 94 1008.7
20260505110335 20 128 1.6 3.2 0.00 0.00 0.00 94 1008.6
20260505101331 20 165 0.0 1.6 0.00 0.00 0.00 93 1008.7
20260505100334 20 165 0.0 3.2 0.00 0.00 0.00 93 1008.6
20260505095402 20 133 1.6 3.2 0.00 0.00 0.00 93 1008.6
20260505094328 20 152 0.0 0.0 0.00 0.00 0.00 93 1008.9
20260505093331 20 181 0.0 0.0 0.00 0.00 0.00 93 1008.9
20260505092341 20 133 0.0 0.0 0.00 0.00 0.00 93 1008.7
20260505091327 20 142 0.0 0.0 0.00 0.00 0.00 93 1008.9
20260505090326 20 142 0.0 0.0 0.00 0.00 0.00 92 1009.0
20260505085334 20 142 0.0 0.0 0.00 0.00 0.00 92 1009.1
20260505084342 20 142 0.0 0.0 0.00 0.00 0.00 92 1009.1
20260505083326 20 123 0.0 1.6 0.00 0.00 0.00 92 1009.2
20260505082337 20 123 1.6 3.2 0.00 0.00 0.00 92 1009.4
20260505081325 20 117 1.6 3.2 0.00 0.00 0.00 91 1009.4
20260505080330 20 109 0.0 1.6 0.00 0.00 0.00 91 1009.6
20260505075338 20 147 0.0 0.0 0.00 0.00 0.00 91 1009.6
20260505074325 20 168 0.0 3.2 0.00 0.00 0.00 91 1009.6
20260505073328 20 142 0.0 3.2 0.00 0.00 0.00 91 1009.6
20260505072356 20 163 0.0 3.2 0.00 0.00 0.00 90 1009.8
20260505071346 20 139 0.0 3.2 0.00 0.00 0.00 90 1009.8
20260505070329 20 138 3.2 6.4 0.00 0.00 0.00 90 1009.9
20260505065339 20 139 1.6 4.8 0.00 0.00 0.00 90 1009.9
20260505064328 20 136 0.0 6.4 0.00 0.00 0.00 89 1010.1
20260505063351 20 146 3.2 4.8 0.00 0.00 0.00 89 1010.2
20260505062336 21 172 1.6 4.8 0.00 0.00 0.00 89 1010.3
20260505061324 21 141 3.2 8.0 0.00 0.00 0.00 88 1010.3
20260505060328 21 140 3.2 8.0 0.00 0.00 0.00 88 1010.2
20260505055339 21 112 1.6 8.0 0.00 0.00 0.00 87 1010.5
20260505054326 21 167 3.2 8.0 0.00 0.00 0.00 87 1010.5
20260505053331 21 146 3.2 9.7 0.00 0.00 0.00 87 1010.5
20260505052337 21 145 3.2 8.0 0.00 0.00 0.00 87 1010.6
20260505051324 21 134 3.2 4.8 0.00 0.00 0.00 86 1010.8
20260505050328 21 142 1.6 4.8 0.00 0.00 0.00 86 1010.9
20260505041340 21 140 3.2 8.0 0.00 0.00 0.00 84 1011.0
20260505040324 21 133 3.2 9.7 0.00 0.00 0.00 83 1011.0
20260505035332 21 135 3.2 6.4 0.00 0.00 0.00 83 1011.1
20260505034338 21 137 3.2 9.7 0.00 0.00 0.00 83 1011.0
20260505033324 21 132 4.8 9.7 0.00 0.00 0.00 83 1011.1
20260505032330 22 146 3.2 12.9 0.00 0.00 0.00 82 1011.1
20260505031356 22 130 4.8 9.7 0.00 0.00 0.00 82 1011.2
20260505030337 22 136 3.2 8.0 0.00 0.00 0.00 81 1011.2
20260505025346 22 140 4.8 11.3 0.00 0.00 0.00 81 1011.0
20260505024332 22 142 4.8 8.0 0.00 0.00 0.00 81 1011.0
20260505023340 22 117 4.8 8.0 0.00 0.00 0.00 80 1011.0
20260505022329 22 141 4.8 9.7 0.00 0.00 0.00 80 1011.1
20260505021341 22 136 4.8 11.3 0.00 0.00 0.00 79 1011.0
20260505020326 22 138 4.8 11.3 0.00 0.00 0.00 78 1010.7
20260505015354 23 139 3.2 11.3 0.00 0.00 0.00 78 1010.6
20260505014336 23 164 3.2 11.3 0.00 0.00 0.00 76 1010.6
20260505013400 23 147 3.2 9.7 0.00 0.00 0.00 76 1010.5
20260505012326 23 140 4.8 11.3 0.00 0.00 0.00 75 1010.4
20260505011334 23 105 6.4 12.9 0.00 0.00 0.00 76 1010.2
20260505010340 23 141 4.8 9.7 0.00 0.00 0.00 76 1010.1
20260505005350 23 135 4.8 8.0 0.00 0.00 0.00 75 1010.3
20260505004359 24 134 4.8 6.4 0.00 0.00 0.00 74 1010.3
20260505003337 25 140 3.2 9.7 0.00 0.00 0.00 72 1010.3
20260505002322 25 159 3.2 9.7 0.00 0.00 0.00 71 1010.3
20260505001330 25 167 1.6 9.7 0.00 0.00 0.00 71 1010.3
20260505000352 25 160 4.8 17.7 0.00 0.00 0.00 69 1010.3
20260504235338 26 177 8.0 16.1 0.00 0.00 0.00 67 1010.2
20260504234325 26 158 4.8 11.3 0.00 0.00 0.00 68 1010.2
20260504233347 26 143 4.8 17.7 0.00 0.00 0.00 67 1010.6
20260504232333 25 148 4.8 12.9 0.00 0.00 0.00 69 1010.5
20260504231400 25 146 4.8 12.9 0.00 0.00 0.00 70 1010.7
20260504230326 25 203 9.7 17.7 0.00 0.00 0.00 68 1010.7
20260504225332 26 176 8.0 16.1 0.00 0.00 0.00 68 1010.8
20260504224358 26 166 4.8 16.1 0.00 0.00 0.00 69 1010.9
20260504223341 26 166 3.2 11.3 0.00 0.00 0.00 68 1011.0
20260504222327 26 160 4.8 12.9 0.00 0.00 0.00 68 1011.1
20260504221332 26 137 3.2 12.9 0.00 0.00 0.00 66 1011.0
20260504220337 26 167 4.8 14.5 0.00 0.00 0.00 66 1011.2
20260504215328 26 145 3.2 16.1 0.00 0.00 0.00 67 1011.5
20260504214334 26 192 4.8 12.9 0.00 0.00 0.00 66 1011.7
20260504213340 26 168 4.8 12.9 0.00 0.00 0.00 65 1011.7
20260504212327 26 177 6.4 14.5 0.00 0.00 0.00 64 1011.9
20260504211334 26 191 4.8 12.9 0.00 0.00 0.00 65 1012.0
20260504210339 26 139 4.8 11.3 0.00 0.00 0.00 63 1012.1
20260504205327 26 145 4.8 9.7 0.00 0.00 0.00 63 1011.9
20260504204338 26 175 3.2 11.3 0.00 0.00 0.00 64 1012.3
20260504203323 27 140 3.2 14.5 0.00 0.00 0.00 62 1012.4
20260504202327 27 164 3.2 11.3 0.00 0.00 0.00 62 1012.4
20260504201334 27 163 4.8 11.3 0.00 0.00 0.00 61 1012.6
20260504200338 26 154 3.2 12.9 0.00 0.00 0.00 60 1012.9
20260504195326 26 173 3.2 8.0 0.00 0.00 0.00 61 1013.0
20260504194333 26 144 4.8 11.3 0.00 0.00 0.00 62 1013.1
20260504193357 26 237 4.8 11.3 0.00 0.00 0.00 63 1013.3
20260504192326 26 208 3.2 11.3 0.00 0.00 0.00 62 1013.6
20260504191334 26 179 4.8 11.3 0.00 0.00 0.00 61 1013.6
20260504190341 26 150 6.4 12.9 0.00 0.00 0.00 64 1013.7
20260504185328 26 192 4.8 12.9 0.00 0.00 0.00 63 1013.7
20260504184334 26 169 3.2 8.0 0.00 0.00 0.00 62 1013.7
20260504183340 26 134 6.4 14.5 0.00 0.00 0.00 64 1014.1
20260504182331 25 192 4.8 11.3 0.00 0.00 0.00 64 1014.2
20260504181337 26 148 4.8 12.9 0.00 0.00 0.00 64 1014.3
20260504180341 26 170 6.4 14.5 0.00 0.00 0.00 62 1014.5
20260504175327 25 137 3.2 11.3 0.00 0.00 0.00 64 1014.3
20260504174354 26 181 4.8 19.3 0.00 0.00 0.00 64 1014.6
20260504173338 25 162 4.8 9.7 0.00 0.00 0.00 65 1014.9
20260504172345 25 169 6.4 12.9 0.00 0.00 0.00 65 1015.0
20260504171337 25 167 6.4 17.7 0.00 0.00 0.00 64 1015.0
20260504170400 25 134 8.0 14.5 0.00 0.00 0.00 64 1015.2